Regional Weather Roundup
Issued by NWS Sterling, VA

Home | Current Version | Previous Version | Text Only | Print | Product List | Glossary Off
Versions: 1 2 3 4 5 6 7 8 9 10 11 12 13 14 15 16 17 18 19 20 21 22 23 24 25 26 27 28 29 30 31 32 33 34 35 36 37 38 39 40 41 42 43 44 45 46 47 48 49 50

000
ASUS41 KLWX 011810
RWRLWX

REGIONAL WEATHER ROUNDUP
NATIONAL WEATHER SERVICE BALTIMORE MD/WASHINGTON DC
200 PM EDT MON SEP 01 2014

Note: "FAIR" indicates few or no clouds below 12,000 feet
with no significant weather and/or obstructions to visibility.
 TC=TEMPERATURE CELSIUS

 * =Non NWS site. Station does not report precipitation (e.g. rain,
    snow, etc.), thunder, or fog.

DCZ001-MDZ009-015-VAZ040>042-051-053>054-011900-
WASHINGTON METRO

CITY           SKY/WX    TMP DP  RH WIND       PRES   REMARKS
WASHINGTON NAT PTSUNNY   87  73  62 S9        29.98F HX  94
DULLES         PTSUNNY   86  71  60 CALM      29.99F HX  91
ANDREWS AFB    MOSUNNY   89  73  60 VRB5      29.99F HX  96
QUANTICO       MOSUNNY   86  76  71 S7        29.99F HX  96
COLLEGE PARK*  MOSUNNY   91  70  49 SW5       29.97F HX  97
LEESBURG*      PTSUNNY   88  73  62 W7        30.00S HX  96
GAITHERSBURG*  CLOUDY    84  72  65 W5        30.03S

$$

MDZ006>007-011-014-011900-
BALTIMORE METRO

CITY           SKY/WX    TMP DP  RH WIND       PRES   REMARKS
BWI AIRPORT    PTSUNNY   88  71  57 W5        29.97F HX  94
MD SCIENCE CTR   N/A     88  74  63 MISG      29.97F HX  96
MARTIN STATE   MOSUNNY   86  79  79 SE12      29.99F HX  99
ANNAPOLIS      PTSUNNY   84  75  74 SE9       29.98S HX  92
FORT MEADE*    MOSUNNY   88  70  55 SW3       30.00F HX  92

$$

MDZ012-015-019>023-011900-
MARYLAND EASTERN SHORE

CITY           SKY/WX    TMP DP  RH WIND       PRES   REMARKS
OCEAN CITY     MOSUNNY   85  75  72 S12G17    30.00F HX  93
SALISBURY      MOSUNNY   91  72  53 W12G20    29.99F HX  98
BAY BRIDGE AP*   N/A     84  72  65 SE9       29.98F
CAMBRIDGE*     SUNNY     88  73  62 SW6       29.99F HX  96
EASTON*        MOSUNNY   90  75  62 SW12      30.02F HX 100

$$

MDZ017>025-011900-
SOUTHERN MARYLAND

CITY           SKY/WX    TMP DP  RH WIND       PRES   REMARKS
PATUXENT RIVER SUNNY     91  70  49 W10       29.98F HX  96
ST INIGOES     MOSUNNY   88  72  58 W3        29.98F HX  94
LEONARDTOWN*   SUNNY     88  70  55 SW12      30.00F HX  92

$$

MDZ003>005-011900-
NORTH CENTRAL MARYLAND

CITY           SKY/WX    TMP DP  RH WIND       PRES   REMARKS
FREDERICK*     PTSUNNY   90  72  55 SW6       30.01F HX  96
HAGERSTOWN APT PTSUNNY   86  70  58 W8        30.00F HX  90
WESTMINSTER*   MOSUNNY   84  72  65 SW7       30.01F

$$

MDZ501>502-011900-
WESTERN MARYLAND

CITY           SKY/WX    TMP DP  RH WIND       PRES   REMARKS
OAKLAND*       PTSUNNY   72 N/A N/A W9        30.13F
CUMBERLAND*    MOSUNNY   84  72  65 CALM      30.06F

$$

VAZ025>031-011900-
SHENANDOAH VALLEY

CITY           SKY/WX    TMP DP  RH WIND       PRES   REMARKS
WINCHESTER*    CLOUDY    81  75  83 CALM      30.02R
STAUNTON*      CLOUDY    86  65  49 SW6       30.07S

$$

WVZ021-048>050-054>055-011900-
EASTERN WEST VIRGINIA PANHANDLE

CITY           SKY/WX    TMP DP  RH WIND       PRES   REMARKS
MARTINSBURG    PTSUNNY   87  69  54 W12       30.01S HX  91
PETERSBURG*    NOT AVBL

$$

VAZ036>039-050-011900-
CENTRAL FOOTHILLS

CITY           SKY/WX    TMP DP  RH WIND       PRES   REMARKS
CHARLOTTESVILL MOSUNNY   89  70  53 VRB6      30.01F HX  94
ORANGE*        MOSUNNY   90  70  51 SW6       30.02F HX  95

$$

VAZ055>057-011900-
NORTH AND CENTRAL PIEDMONT

CITY           SKY/WX    TMP DP  RH WIND       PRES   REMARKS
FREDERICKSBRG* SUNNY     91  72  53 SW7       29.99S HX  98
STAFFORD*      PTSUNNY   88  73  61 W5        30.03F HX  95

$$

NCZ024-NYZ072-PAZ021-071-VAZ022-071-011900-
OTHER REGIONAL OBSERVATIONS

CITY           SKY/WX    TMP DP  RH WIND       PRES   REMARKS
NEW YORK CITY  CLOUDY    84  69  60 VRB3      29.99F
PHILADELPHIA   MOSUNNY   87  70  56 SW10      29.98F HX  92
PITTSBURGH     PTSUNNY   79  69  71 SW9       30.00F
ROANOKE        PTSUNNY   87  66  49 W10       30.10F
RICHMOND       PTSUNNY   94  65  38 W13       30.00F HX  96
RALEIGH        PTSUNNY   92  72  51 VRB5      30.08F HX  99

$$

ANZ530>537-011900-
MARINE OBSERVATIONS

STATION/POSITION TIME  TEMP    WIND        PRES
                       AIR SEA DIR/SP/G
                 (UTC) (F)     (DEG/KT/KT) (MB)
THOMAS PT LIGHT  1800   80 80  170/ 10/ 12 1016.2F
BALT KEY BRIDGE  1800          110/ 11/ 13 1014.7F
COVE POINT       1800   79     170/ 11/ 13 1015.3F
LEWISETTA        1800   88 81  290/  7/ 10 1015.1F
SOLOMONS ISLAND  1800      79                N/A
PINEY POINT      1800           10/  2/  3   N/A

$$




USA.gov is the U.S. government's official web portal to all federal, state and local government web resources and services.